sat.trackr.live / text

‹ back to catalog

STARLINK-31840

NORAD 60127 · 2024-118Q

PAYLOAD ACTIVE UNKNOWN

§ Identity

Operator
Country
US
Launch date
2024-06-24
Launch site
AFWTR
Launch vehicle
Mass (kg)
RCS (m²)

Purposes: comms

External: N2YO · Heavens-Above · Gunter

§ Orbital elements

Epoch: 2026-09-21T07:08:43.742400Z

Period
94.01 min
Inclination
53.1609°
Eccentricity
0.0001448
Mean motion
15.31716081 rev/d
Perigee alt
469.7 km
Apogee alt
471.7 km
Semi-major
6,848.8 km
B*
1.4725e-5
RAAN
196.8089°
Arg perigee
88.1702°
Mean anomaly
271.9465°
Rev number
12,566

§ Raw data

STARLINK-318401 60127U 24118Q   26264.29772850  .00000092  00000+0  14725-4 0  99952 60127  53.1609 196.8089 0001448  88.1702 271.9465 15.31716081125663

JSON: /api/v1/satellites/60127 · /tle

For live sub-satellite position, see the globe view (requires WebGL).

§ Visibility from observer

Set your observer location to see the next 7 days of passes ≥ 10°. The values pass through the URL so the page stays shareable.

No JS? Fill the form by hand. The geolocation button needs JavaScript.